Weather History for Arctic Village, AK

Change the Weather History Date:

Thursday, December 5, 2013

  Actual Average Record
Temperature  
Mean Temperature -11 °F -  
Max Temperature 1 °F -5 °F 27 °F (1989)
Min Temperature -23 °F -24 °F -52 °F (1990)
Degree Days  
Heating Degree Days 76    
Moisture  
Dew Point -21 °F    
Average Humidity 59    
Maximum Humidity 100    
Minimum Humidity 25    
Precipitation  
Precipitation 0.00 in - - ()
Sea Level Pressure  
Sea Level Pressure 30.40 in    
Wind  
Wind Speed - (North)    
Max Wind Speed -    
Max Gust Speed -    
Visibility 9 miles    
Events      
Averages and records for this station are not official NWS values.
T = Trace of Precipitation, MM = Missing Value Source: NWS Daily Summary

Daily Weather History Graph

Daily Weather History Graph

Search for Another Location

Airport:

Trip Planner

Search our weather history database for the weather conditions in past years. The results will help you decide how hot, cold, wet, or windy it might be!

Date:

Astronomy

Dec. 05, 2013 Rise Set
Actual Time 11:56 AM AKST 1:09 PM AKST
Civil Twilight 9:39 AM AKST 3:26 PM AKST
Nautical Twilight 8:13 AM AKST 4:52 PM AKST
Astronomical Twilight 7:03 AM AKST 6:02 PM AKST
Moon 12:33 PM AKST (12/5) 6:38 PM AKST (12/5)
Length of Visible Light 5h 47m
Length of Day
1h 13m
Waxing Crescent, 12% of the Moon is Illuminated
Dec 5
Waxing Crescent
Dec 9
First Quarter
Dec 17
Full
Dec 25
Last Quarter
Jan 1
New

Hourly Weather History & Observations

Time (AKST) Temp. Dew Point Humidity Pressure Visibility Wind Dir Wind Speed Gust Speed Precip Events Conditions
12:16 AM -20.2 °F - N/A% 30.49 in 9.0 mi North - - N/A   Clear
12:36 AM -22.0 °F -23.8 °F 91% 30.50 in 10.0 mi North - - N/A   Clear
12:56 AM -18.4 °F - N/A% 30.50 in 10.0 mi North - - N/A   Clear
1:16 AM -20.2 °F - N/A% 30.50 in 10.0 mi North - - N/A   Clear
1:36 AM -18.4 °F -27.4 °F 63% 30.49 in 10.0 mi North - - N/A   Clear
1:56 AM -18.4 °F - N/A% 30.50 in 10.0 mi North - - N/A   Clear
2:16 AM -22.0 °F - N/A% 30.49 in 10.0 mi North - - N/A   Clear
2:36 AM -20.2 °F - N/A% 30.49 in 10.0 mi North - - N/A   Clear
2:56 AM -22.0 °F - N/A% 30.48 in 10.0 mi North - - N/A   Clear
3:16 AM -20.2 °F - N/A% 30.48 in 10.0 mi North - - N/A   Clear
3:36 AM -22.0 °F - N/A% 30.47 in 10.0 mi North - - N/A   Clear
3:56 AM -22.0 °F - N/A% 30.47 in 10.0 mi North - - N/A   Clear
4:16 AM -22.0 °F - N/A% 30.47 in 10.0 mi North - - N/A   Clear
4:36 AM -22.0 °F - N/A% 30.47 in 10.0 mi North - - N/A   Clear
4:56 AM -22.0 °F - N/A% 30.47 in 10.0 mi North - - N/A   Clear
5:16 AM -20.2 °F - N/A% 30.46 in 10.0 mi North - - N/A   Clear
5:36 AM -22.0 °F - N/A% 30.46 in 10.0 mi North - - N/A   Clear
5:56 AM -18.4 °F - N/A% 30.46 in 8.0 mi North - - N/A   Clear
6:16 AM -18.4 °F - N/A% 30.46 in 5.0 mi North - - N/A   Clear
6:36 AM -18.4 °F -27.4 °F 63% 30.46 in 9.0 mi North - - N/A   Clear
6:56 AM -18.4 °F - N/A% 30.45 in 10.0 mi North - - N/A   Clear
7:16 AM -23.8 °F - N/A% 30.44 in 8.0 mi North - - N/A   Clear
7:36 AM -20.2 °F - N/A% 30.44 in 10.0 mi North - - N/A   Clear
7:56 AM -22.0 °F - N/A% 30.44 in 10.0 mi North - - N/A   Clear
8:16 AM -18.4 °F -18.4 °F 100% 30.44 in 2.5 mi North - - N/A   Clear
8:36 AM -20.2 °F - N/A% 30.43 in 8.0 mi North - - N/A   Clear
8:56 AM -20.2 °F - N/A% 30.44 in 10.0 mi North - - N/A   Clear
9:16 AM -20.2 °F - N/A% 30.43 in 10.0 mi North - - N/A   Clear
9:36 AM -22.0 °F - N/A% 30.44 in 10.0 mi North - - N/A   Clear
9:56 AM -20.2 °F - N/A% 30.43 in 10.0 mi North - - N/A   Clear
10:16 AM -20.2 °F - N/A% 30.43 in 8.0 mi North - - N/A   Clear
10:36 AM -23.8 °F - N/A% 30.43 in 9.0 mi North - - N/A   Clear
10:56 AM -20.2 °F - N/A% 30.43 in 5.0 mi North - - N/A   Clear
11:16 AM -18.4 °F - N/A% 30.42 in 9.0 mi North - - N/A   Clear
11:36 AM -23.8 °F - N/A% 30.42 in 10.0 mi North - - N/A   Clear
11:56 AM -22.0 °F - N/A% 30.42 in 10.0 mi North - - N/A   Clear
12:16 PM -23.8 °F - N/A% 30.42 in 8.0 mi North - - N/A   Clear
12:36 PM -22.0 °F - N/A% 30.41 in 9.0 mi North - - N/A   Clear
12:56 PM -23.8 °F - N/A% 30.41 in 10.0 mi North - - N/A   Clear
1:16 PM -22.0 °F - N/A% 30.41 in 10.0 mi North - - N/A   Clear
1:36 PM -20.2 °F -27.4 °F 69% 30.41 in 10.0 mi North - - N/A   Clear
1:56 PM -18.4 °F -29.2 °F 58% 30.40 in 10.0 mi North - - N/A   Clear
2:16 PM -22.0 °F - N/A% 30.40 in 10.0 mi North - - N/A   Clear
2:36 PM -20.2 °F -25.6 °F 76% 30.39 in 10.0 mi North - - N/A   Clear
2:56 PM -16.6 °F -20.2 °F 84% 30.39 in 10.0 mi North - - N/A   Scattered Clouds
3:16 PM -16.6 °F -27.4 °F 58% 30.37 in 8.0 mi North - - N/A   Overcast
3:36 PM -16.6 °F -22.0 °F 76% 30.37 in 10.0 mi North - - N/A   Overcast
3:56 PM -16.6 °F -27.4 °F 58% 30.36 in 10.0 mi North - - N/A   Scattered Clouds
4:16 PM -14.8 °F - N/A% 30.37 in 9.0 mi North - - N/A   Clear
4:36 PM -14.8 °F - N/A% 30.36 in 10.0 mi North - - N/A   Scattered Clouds
4:56 PM -14.8 °F - N/A% 30.36 in 10.0 mi North - - N/A   Mostly Cloudy
5:16 PM -13.0 °F - N/A% 30.35 in 10.0 mi North - - N/A   Mostly Cloudy
5:36 PM -13.0 °F - N/A% 30.35 in 10.0 mi North - - N/A   Overcast
5:56 PM -11.2 °F - N/A% 30.35 in 10.0 mi North - - N/A   Overcast
6:16 PM -9.4 °F -29.2 °F 37% 30.34 in 10.0 mi North - - N/A   Scattered Clouds
6:36 PM -9.4 °F -23.8 °F 49% 30.34 in 10.0 mi North - - N/A   Mostly Cloudy
6:56 PM -7.6 °F -14.8 °F 71% 30.33 in 10.0 mi North - - N/A   Overcast
7:16 PM -7.6 °F -20.2 °F 54% 30.32 in 10.0 mi North - - N/A   Overcast
7:36 PM -5.8 °F - N/A% 30.32 in 10.0 mi North - - N/A   Overcast
7:56 PM -5.8 °F - N/A% 30.31 in 10.0 mi North - - N/A   Mostly Cloudy
8:16 PM -5.8 °F -25.6 °F 38% 30.31 in 10.0 mi North - - N/A   Mostly Cloudy
8:36 PM -2.2 °F -29.2 °F 27% 30.31 in 10.0 mi North - - N/A   Partly Cloudy
8:56 PM -2.2 °F -22.0 °F 39% 30.30 in 10.0 mi North - - N/A   Mostly Cloudy
9:16 PM -2.2 °F -9.4 °F 71% 30.30 in 10.0 mi North - - N/A   Mostly Cloudy
9:36 PM -0.4 °F -16.6 °F 46% 30.29 in 10.0 mi North - - N/A   Overcast
9:56 PM -0.4 °F -9.4 °F 66% 30.29 in 10.0 mi North - - N/A   Overcast
10:16 PM -0.4 °F -23.8 °F 32% 30.29 in 4.0 mi North - - N/A   Mostly Cloudy
10:36 PM -0.4 °F -16.6 °F 46% 30.27 in 9.0 mi North - - N/A   Overcast
10:56 PM 1.4 °F -18.4 °F 39% 30.26 in 10.0 mi North - - N/A   Overcast
11:16 PM 1.4 °F -11.2 °F 56% 30.25 in 10.0 mi North - - N/A   Overcast
11:36 PM 1.4 °F 1.4 °F 100% 30.25 in 10.0 mi North - - N/A   Overcast
11:56 PM 1.4 °F -27.4 °F 25% 30.25 in 10.0 mi North - - N/A   Overcast